[[{"header":{"parameterUnit":"m.s-1","parameterCategory":1,"la1":30.2991,"la2":30.254,"lo1":-89.0895,"lo2":-89.0444,"dy":0.0017,"dx":0.0017,"nx":28,"ny":28,"refTime":"2024-06-26T09:00:00:Z","depth":0,"parameterNumber":2,"parameterNumberName":"U-component_of_WINDS"},"data":[0,0,0,0,0,0,0,0,0,0,0,0,0,0,0,0,0,0,0,0,0,0,0,0,0,0,0,0,0,0,0,0,0,0,0,0,0,0,0,0,0,0,0,0,0,0,0,0,0,0,0,0,0,0,0,0,0,0,3.7466,3.7467,0,3.7548,3.7549,3.755,3.7545,3.7544,3.7543,3.7542,3.7629,3.7632,3.7635,0,0,0,0,0,0,0,0,0,0,0,0,0,3.731,3.7313,3.7466,3.7467,3.7468,3.7548,3.7549,3.755,3.7545,3.7544,3.7542,3.7541,3.7628,3.7632,3.7636,0,0,0,0,0,0,0,0,0,0,0,0,0,3.7384,3.7314,3.7466,3.7475,3.7477,3.7548,3.7549,3.7551,3.7546,3.7544,3.7542,3.754,3.7626,3.7631,3.7636,3.7704,0,0,3.7652,3.7654,0,0,0,0,0,0,0,0,3.738,3.7389,3.7473,3.7475,3.7477,3.7534,3.7526,3.7602,3.7546,3.752,3.7542,3.754,3.7599,3.7606,3.7626,3.7708,3.7712,3.7652,3.7656,3.7658,3.7659,0,0,0,0,0,0,0,3.7374,3.7386,3.7499,3.7474,3.7476,3.7477,3.7485,3.754,3.7569,3.7522,3.7522,3.7531,3.76,3.7621,3.7628,3.7713,3.7652,3.7657,3.766,3.7662,3.7859,3.7861,0,0,0,0,0,0,3.7367,3.7382,3.7496,3.7501,3.7423,3.7481,3.7491,3.7518,3.7568,3.7574,3.7533,3.7531,3.7613,3.7622,3.7631,3.7715,3.7658,3.7663,3.7666,3.7857,3.786,3.7862,0,0,0,0,0,0,3.7363,3.7377,3.7493,3.7441,3.7456,3.7486,3.7516,3.752,3.7541,3.7576,3.7581,3.7549,3.7612,3.7624,3.7686,3.7718,3.7665,3.767,3.7855,3.7858,3.7861,3.7883,0,0,0,0,0,0,3.7359,3.7376,3.74,3.7442,3.7459,3.7545,3.7518,3.7523,3.755,3.7548,3.7592,3.7598,3.7611,3.7679,3.7692,3.7724,3.7674,3.7852,3.7856,3.786,3.788,3.7887,3.7893,0,0,0,0,0,3.7353,3.7403,3.7401,3.7415,3.749,3.7547,3.7557,3.757,3.7552,3.7578,3.7601,3.7597,3.7713,3.7685,3.77,3.7734,3.785,3.7855,3.7859,3.7877,3.7886,3.7893,0,0,0,0,0,0,3.7365,3.7409,3.7407,3.7472,3.7506,3.7546,3.7579,3.7578,3.7618,3.7615,3.7631,3.7641,3.7705,3.7726,3.7695,3.7804,3.7779,3.7787,3.7788,3.7796,3.7803,3.7796,3.7678,0,0,0,0,0,3.7375,3.7416,3.7453,3.7507,3.7524,3.7549,3.7574,3.7581,3.7617,3.7632,3.7659,3.7696,3.7741,3.777,3.7813,3.7884,3.7895,3.7915,3.7922,3.7927,3.7933,3.7975,3.7985,3.7878,3.7878,3.7878,0,0,3.7396,3.7425,3.745,3.751,3.7537,3.7581,3.756,3.7607,3.7641,3.7639,3.77,3.7722,3.7764,3.7832,3.7863,3.7852,3.7966,3.7933,3.7937,3.7941,3.7981,3.7991,3.8,3.7881,3.788,3.788,0,0,3.7456,3.7482,3.7531,3.7559,3.76,3.7617,3.7629,3.767,3.7685,3.7746,3.7747,3.7788,3.7864,3.7895,3.7921,3.7997,3.7995,3.8011,3.8045,3.8086,3.8094,3.8102,3.813,3.814,3.8018,3.8018,3.8018,0,3.7477,3.7542,3.7556,3.7604,3.7631,3.7632,3.7683,3.771,3.7764,3.7783,3.777,3.7868,3.7896,3.7972,3.7991,3.8011,3.8027,3.8005,3.8092,3.8099,3.8107,3.8134,3.8145,3.802,3.8019,3.8019,3.8019,0,3.7567,3.7613,3.7648,3.77,3.7731,3.778,3.7803,3.7834,3.784,3.7859,3.7923,3.7958,3.8009,3.8028,3.8034,3.8106,3.8098,3.8088,3.8063,3.8118,3.8145,3.8155,3.8022,3.8021,3.8021,3.802,0,0,3.7635,3.7696,3.7708,3.7733,3.7781,3.7817,3.7868,3.7918,3.7945,3.7983,3.8027,3.8094,3.8086,3.8115,3.8125,3.816,3.8221,3.8147,3.8148,3.816,3.8306,3.8313,3.8325,3.8221,3.8223,3.8225,3.8302,0,3.7701,3.779,3.7805,3.7883,3.7927,3.793,3.7975,3.801,3.8031,3.8072,3.8095,3.8142,3.8127,3.8145,3.8181,3.8206,3.8251,3.8201,3.8264,3.8266,3.8253,3.8338,3.8345,3.8417,3.8313,3.8314,3.8316,0,3.779,3.7831,3.7913,3.7958,3.7977,3.8016,3.8065,3.8104,3.8145,3.8158,3.8192,3.8199,3.8254,3.8228,3.8305,3.8271,3.8298,3.8315,3.8319,3.8325,3.8294,3.8347,3.844,3.8451,3.8332,3.8331,3.8329,0,3.7832,3.7908,3.7968,3.7989,3.8042,3.807,3.8094,3.8133,3.8163,3.8207,3.8227,3.8276,3.8303,3.8342,3.8363,3.8342,3.8441,3.8415,3.8454,3.8454,3.8474,3.8472,3.8572,3.8491,3.8491,3.8491,3.8491,0,3.7905,3.7956,3.7988,3.8025,3.8083,3.8101,3.8159,3.8182,3.8218,3.8261,3.8268,3.8308,3.8333,3.8378,3.8396,3.8459,3.8471,3.8484,3.8488,3.8483,3.8482,3.8501,3.8496,3.8494,3.8493,3.8492,3.8492,0,3.7962,3.7985,3.8051,3.8096,3.8109,3.815,3.819,3.8227,3.8248,3.8303,3.8317,3.8351,3.8404,3.843,3.8496,3.8508,3.858,3.858,3.8565,3.8567,3.8605,3.8601,3.8721,3.8738,3.8645,3.8646,3.8646,0,3.8006,3.8045,3.8096,3.8125,3.8149,3.8196,3.8227,3.8248,3.828,3.8332,3.8364,3.8418,3.8462,3.8548,3.8579,3.8631,3.8633,3.8672,3.8641,3.8636,3.8635,3.8632,3.8637,3.8677,3.8678,3.8679,3.8679,0,3.8083,3.8094,3.8138,3.8187,3.8224,3.8263,3.8303,3.8327,3.8354,3.8391,3.8445,3.848,3.8549,3.8603,3.8657,3.8684,3.8687,3.8689,3.8701,3.8696,3.8687,3.8694,3.8581,3.8686,3.8685,3.8685,3.8684,3.8684,3.8136,3.8172,3.8214,3.8263,3.8295,3.8332,3.837,3.8397,3.8442,3.8499,3.851,3.8569,3.8613,3.8686,3.8715,3.8762,3.8754,3.877,3.8775,3.8779,3.8781,3.8679,3.8772,3.8772,3.8772,3.8772,3.8772,0,3.8214,3.8242,3.8288,3.8343,3.8382,3.8382,3.8426,3.846,3.8511,3.8551,3.8595,3.866,3.8713,3.875,3.8805,3.8836,3.8839,3.885,3.8848,3.8855,3.8785,3.877,3.8847,3.8847,3.8847,3.8847,3.8847,3.8847,3.826,3.8321,3.8337,3.8416,3.8444,3.8501,3.8526,3.8562,3.8594,3.8666,3.871,3.8733,3.8773,3.8832,3.8882,3.8891,3.8912,3.8923,3.8932,3.8867,3.8859,3.8852,3.8837,3.8927,3.8927,3.8997,3.8998,3.8999]},{"header":{"parameterUnit":"m.s-1","parameterCategory":1,"la1":30.2991,"la2":30.254,"lo1":-89.0895,"lo2":-89.0444,"dy":0.0017,"dx":0.0017,"nx":28,"ny":28,"refTime":"2024-06-26T09:00:00:Z","depth":0,"parameterNumber":3,"parameterNumberName":"V-component_of_WINDS"},"data":[0,0,0,0,0,0,0,0,0,0,0,0,0,0,0,0,0,0,0,0,0,0,0,0,0,0,0,0,0,0,0,0,0,0,0,0,0,0,0,0,0,0,0,0,0,0,0,0,0,0,0,0,0,0,0,0,0,0,-0.951,-0.9511,0,-0.9524,-0.9524,-0.9524,-0.9541,-0.9541,-0.9541,-0.9542,-0.9555,-0.9555,-0.9555,0,0,0,0,0,0,0,0,0,0,0,0,0,-0.9499,-0.9499,-0.951,-0.9511,-0.9511,-0.9524,-0.9524,-0.9525,-0.9541,-0.9541,-0.9541,-0.9542,-0.9555,-0.9555,-0.9555,0,0,0,0,0,0,0,0,0,0,0,0,0,-0.9507,-0.9499,-0.951,-0.952,-0.9521,-0.9524,-0.9524,-0.9525,-0.9541,-0.9541,-0.9541,-0.9542,-0.9555,-0.9555,-0.9555,-0.9548,0,0,-0.9555,-0.9556,0,0,0,0,0,0,0,0,-0.9507,-0.9508,-0.9519,-0.952,-0.9521,-0.9531,-0.9525,-0.9533,-0.9541,-0.9533,-0.9542,-0.9542,-0.9546,-0.9547,-0.9549,-0.9549,-0.955,-0.9555,-0.9556,-0.9556,-0.9556,0,0,0,0,0,0,0,-0.9506,-0.9507,-0.9516,-0.9519,-0.952,-0.9525,-0.9526,-0.9527,-0.9538,-0.9534,-0.9535,-0.9537,-0.9547,-0.9549,-0.9549,-0.955,-0.9555,-0.9556,-0.9556,-0.9556,-0.9547,-0.9547,0,0,0,0,0,0,-0.9504,-0.9507,-0.9515,-0.9516,-0.9515,-0.9524,-0.9526,-0.9527,-0.9538,-0.954,-0.9536,-0.9537,-0.9548,-0.9549,-0.955,-0.9544,-0.9556,-0.9556,-0.9556,-0.9547,-0.9547,-0.9547,0,0,0,0,0,0,-0.9504,-0.9505,-0.9515,-0.9512,-0.9513,-0.9524,-0.9525,-0.9528,-0.9529,-0.9539,-0.9541,-0.9536,-0.9549,-0.955,-0.9549,-0.9545,-0.9556,-0.9556,-0.9548,-0.9547,-0.9547,-0.9531,0,0,0,0,0,0,-0.9503,-0.9504,-0.9502,-0.9512,-0.9513,-0.9513,-0.9525,-0.9528,-0.953,-0.9531,-0.954,-0.9541,-0.9549,-0.9549,-0.9549,-0.9545,-0.9556,-0.9548,-0.9548,-0.9547,-0.9532,-0.953,-0.9529,0,0,0,0,0,-0.9503,-0.9496,-0.9501,-0.9502,-0.951,-0.9513,-0.9514,-0.9523,-0.9529,-0.9527,-0.9534,-0.9541,-0.9545,-0.9549,-0.9549,-0.9545,-0.9549,-0.9548,-0.9547,-0.9533,-0.9531,-0.9529,0,0,0,0,0,0,-0.9484,-0.9497,-0.9504,-0.95,-0.9505,-0.9516,-0.9513,-0.952,-0.9524,-0.9525,-0.9536,-0.9538,-0.9536,-0.9541,-0.9544,-0.954,-0.9548,-0.9548,-0.9537,-0.9535,-0.9533,-0.9532,-0.9556,0,0,0,0,0,-0.948,-0.9481,-0.9493,-0.9488,-0.9491,-0.9502,-0.9503,-0.951,-0.9516,-0.9518,-0.9525,-0.953,-0.9533,-0.9534,-0.9537,-0.9533,-0.9536,-0.9531,-0.9529,-0.9528,-0.9527,-0.9526,-0.9525,-0.9544,-0.9544,-0.9544,0,0,-0.9471,-0.9478,-0.9478,-0.9485,-0.949,-0.9491,-0.9503,-0.9504,-0.9505,-0.9518,-0.9518,-0.9524,-0.9531,-0.9529,-0.9528,-0.9532,-0.9522,-0.9527,-0.9526,-0.9525,-0.9526,-0.9524,-0.9522,-0.9544,-0.9544,-0.9544,0,0,-0.9454,-0.946,-0.9457,-0.9463,-0.9471,-0.9478,-0.9478,-0.9488,-0.9492,-0.9493,-0.9503,-0.9505,-0.9509,-0.9514,-0.9517,-0.9506,-0.9513,-0.9507,-0.9497,-0.9496,-0.9495,-0.9493,-0.949,-0.9488,-0.9506,-0.9506,-0.9506,0,-0.9442,-0.9444,-0.9455,-0.9456,-0.9459,-0.9472,-0.947,-0.9475,-0.9483,-0.9485,-0.949,-0.9497,-0.9503,-0.9503,-0.95,-0.9502,-0.9502,-0.9505,-0.9494,-0.9493,-0.9492,-0.9489,-0.9487,-0.9505,-0.9505,-0.9505,-0.9505,0,-0.9428,-0.943,-0.9427,-0.9436,-0.9439,-0.9438,-0.945,-0.9452,-0.9459,-0.9466,-0.9467,-0.9475,-0.9481,-0.9481,-0.9488,-0.9483,-0.9485,-0.9492,-0.95,-0.9489,-0.9486,-0.9485,-0.9504,-0.9504,-0.9504,-0.9504,0,0,-0.9398,-0.9415,-0.9414,-0.9419,-0.943,-0.9432,-0.9432,-0.9438,-0.944,-0.9446,-0.9447,-0.9452,-0.9459,-0.9462,-0.947,-0.9469,-0.9461,-0.9476,-0.9477,-0.9473,-0.9457,-0.9452,-0.945,-0.9467,-0.9466,-0.9466,-0.9457,0,-0.9384,-0.9386,-0.9397,-0.9395,-0.9398,-0.9412,-0.9413,-0.942,-0.9427,-0.9431,-0.9439,-0.9442,-0.9451,-0.9453,-0.9454,-0.9462,-0.9458,-0.9463,-0.9468,-0.9468,-0.9465,-0.9448,-0.9442,-0.9432,-0.9455,-0.9455,-0.9455,0,-0.9367,-0.9373,-0.9372,-0.9385,-0.9386,-0.9386,-0.9394,-0.9397,-0.9406,-0.9411,-0.9417,-0.9426,-0.9428,-0.9437,-0.944,-0.9444,-0.9447,-0.9451,-0.9451,-0.9451,-0.946,-0.9448,-0.943,-0.9428,-0.9453,-0.9453,-0.9454,0,-0.9345,-0.9354,-0.9354,-0.9358,-0.9373,-0.9373,-0.9379,-0.9389,-0.9392,-0.9399,-0.9402,-0.9409,-0.9412,-0.9418,-0.9429,-0.9434,-0.9432,-0.9441,-0.9437,-0.9436,-0.9435,-0.9434,-0.9416,-0.9437,-0.9437,-0.9437,-0.9437,0,-0.9328,-0.9326,-0.9345,-0.9346,-0.9345,-0.9359,-0.9359,-0.9366,-0.9375,-0.9378,-0.9391,-0.9393,-0.9408,-0.9412,-0.9421,-0.9423,-0.9425,-0.943,-0.9432,-0.9428,-0.9428,-0.943,-0.9431,-0.9437,-0.9437,-0.9437,-0.9437,0,-0.9303,-0.9316,-0.9318,-0.9332,-0.9336,-0.9335,-0.9348,-0.935,-0.9359,-0.9362,-0.9364,-0.9378,-0.9384,-0.9396,-0.9405,-0.9411,-0.9412,-0.9416,-0.9408,-0.941,-0.9405,-0.9405,-0.9387,-0.9386,-0.9408,-0.9408,-0.9407,0,-0.9291,-0.929,-0.9306,-0.9309,-0.9315,-0.9319,-0.9323,-0.9338,-0.9342,-0.9354,-0.9354,-0.9361,-0.9367,-0.9376,-0.9388,-0.9395,-0.9399,-0.9393,-0.94,-0.9397,-0.94,-0.9399,-0.94,-0.9391,-0.939,-0.939,-0.939,0,-0.9267,-0.9274,-0.928,-0.9288,-0.9293,-0.93,-0.9308,-0.931,-0.9327,-0.9331,-0.9337,-0.9342,-0.9353,-0.936,-0.9369,-0.9376,-0.9386,-0.9388,-0.9387,-0.9383,-0.9379,-0.9381,-0.9403,-0.9388,-0.9388,-0.9388,-0.9388,-0.9388,-0.9248,-0.9249,-0.9261,-0.9267,-0.9275,-0.9283,-0.9285,-0.9296,-0.9302,-0.9311,-0.932,-0.9326,-0.9337,-0.9351,-0.9358,-0.9363,-0.9368,-0.9367,-0.9367,-0.9366,-0.9365,-0.9379,-0.9365,-0.9365,-0.9365,-0.9365,-0.9365,0,-0.9226,-0.9235,-0.9241,-0.9252,-0.9257,-0.9267,-0.9277,-0.9281,-0.9286,-0.9296,-0.9303,-0.9311,-0.9319,-0.9332,-0.9341,-0.9343,-0.9348,-0.9345,-0.9345,-0.9346,-0.936,-0.936,-0.9341,-0.9341,-0.9341,-0.9341,-0.9341,-0.9341,-0.9215,-0.9217,-0.9226,-0.9233,-0.9242,-0.9248,-0.9253,-0.9261,-0.9269,-0.9278,-0.9285,-0.9294,-0.9305,-0.9316,-0.9323,-0.9327,-0.933,-0.9326,-0.9331,-0.9343,-0.9345,-0.9347,-0.9347,-0.9326,-0.9326,-0.9316,-0.9316,-0.9316]}]]